Sign-in with your pilot id or email, or register

ICAO: RCTP Name / Country: Chung-cheng Kuo-chi Chi-ch'ang / Taiwan
Latitude: 25.0777 Longitude: 121.233
Total Arrivals:
Deprecated: Non-static method AirportData::getarrflights() should not be called statically, assuming $this from incompatible context in /var/www/customers/vh-7192/web/home/phpvms/core/templates/airport_info.tpl on line 18
1
Total Departures:
Deprecated: Non-static method AirportData::getdeptflights() should not be called statically, assuming $this from incompatible context in /var/www/customers/vh-7192/web/home/phpvms/core/templates/airport_info.tpl on line 21
0
Latest Arrival: MTA5PM (RJAA-RCTP) Tibor Berces Latest Departure: (-)
Metar: RCTP 050116Z 23004KT 170V290 9999 FEW015 SCT080 BKN100 32/26 Q0999 NOSIG RMK R23 A2950
More info

Charts for RCTP


NOTAM


Warning: file_get_contents(http://api.vateud.net/notams/RCTP.json): failed to open stream: HTTP request failed! HTTP/1.1 404 Not Found in /var/www/customers/vh-7192/web/home/phpvms/core/common/NOTAMSData.class.php on line 18

Warning: Invalid argument supplied for foreach() in /var/www/customers/vh-7192/web/home/phpvms/core/common/NOTAMSData.class.php on line 22

Chung-cheng Kuo-chi Chi-ch'ang